TimeCST,TemperatureF,Dew PointF,Humidity,Sea Level PressureIn,VisibilityMPH,Wind Direction,Wind SpeedMPH,Gust SpeedMPH,PrecipitationIn,Events,Conditions,WindDirDegrees,DateUTC
12:53 AM,30.9,26.1,82,29.96,5.0,NNW,8.1,-,N/A,,Haze,340,2013-02-05 06:53:00
1:53 AM,30.0,26.1,85,29.96,4.0,NNW,5.8,-,N/A,,Clear,330,2013-02-05 07:53:00
2:53 AM,28.9,25.0,85,29.95,4.0,Calm,Calm,-,N/A,,Clear,0,2013-02-05 08:53:00
3:53 AM,27.0,24.1,89,29.95,4.0,Calm,Calm,-,N/A,,Clear,0,2013-02-05 09:53:00
4:53 AM,27.0,24.1,89,29.96,3.0,Calm,Calm,-,N/A,,Clear,0,2013-02-05 10:53:00
5:53 AM,25.0,21.9,88,29.98,4.0,WNW,4.6,-,N/A,,Clear,290,2013-02-05 11:53:00
6:53 AM,26.1,24.1,92,29.99,3.0,Calm,Calm,-,N/A,,Clear,0,2013-02-05 12:53:00
7:02 AM,26.6,23.0,86,29.97,2.0,Calm,Calm,-,N/A,,Clear,0,2013-02-05 13:02:00
7:53 AM,28.0,25.0,88,30.00,2.0,WSW,3.5,-,N/A,,Clear,250,2013-02-05 13:53:00
8:15 AM,28.4,26.6,93,29.99,3.0,WSW,3.5,-,N/A,,Clear,250,2013-02-05 14:15:00
8:53 AM,30.0,26.1,85,30.00,3.0,South,3.5,-,N/A,,Partly Cloudy,170,2013-02-05 14:53:00
10:53 AM,33.1,27.0,78,29.98,5.0,South,8.1,-,N/A,,Haze,190,2013-02-05 16:53:00
11:53 AM,36.0,28.9,76,29.96,4.0,SSW,12.7,-,N/A,,Haze,210,2013-02-05 17:53:00
12:53 PM,39.9,30.9,70,29.93,5.0,SW,15.0,-,N/A,,Haze,220,2013-02-05 18:53:00
1:53 PM,44.1,32.0,63,29.92,5.0,SW,13.8,-,N/A,,Haze,220,2013-02-05 19:53:00
2:53 PM,46.0,34.0,63,29.91,5.0,SW,13.8,20.7,N/A,,Haze,230,2013-02-05 20:53:00
3:53 PM,46.0,34.0,63,29.92,6.0,WSW,12.7,-,N/A,,Haze,240,2013-02-05 21:53:00
4:53 PM,44.1,34.0,68,29.94,6.0,West,6.9,-,N/A,,Haze,260,2013-02-05 22:53:00
5:53 PM,42.1,33.1,70,29.96,7.0,West,3.5,-,N/A,,Clear,270,2013-02-05 23:53:00
6:53 PM,39.9,32.0,73,29.99,7.0,West,3.5,-,N/A,,Clear,280,2013-02-06 00:53:00
7:53 PM,36.0,30.9,82,30.02,6.0,WNW,5.8,-,N/A,,Haze,300,2013-02-06 01:53:00
8:53 PM,37.0,30.0,76,30.06,5.0,NW,11.5,-,N/A,,Haze,320,2013-02-06 02:53:00
9:53 PM,37.0,30.0,76,30.09,6.0,NW,10.4,-,N/A,,Haze,320,2013-02-06 03:53:00
10:53 PM,35.1,28.9,78,30.11,6.0,NNW,10.4,-,N/A,,Haze,330,2013-02-06 04:53:00
11:53 PM,33.1,28.0,82,30.13,5.0,NW,8.1,-,N/A,,Haze,320,2013-02-06 05:53:00